| time (UTC) | temp F | wind direction | speed MPH | gust MPH | rain 1hr in | rain 24hr in | rain mn in | humidity % | barometer mb |
| 20260904192138 | 87 | 273 | 0.0 | 12.0 | 0.00 | 0.01 | 0.01 | 59 | 1010.5 |
| 20260904191138 | 87 | 264 | 0.0 | 9.0 | 0.00 | 0.01 | 0.01 | 58 | 1010.4 |
| 20260904190138 | 88 | 280 | 1.0 | 8.0 | 0.00 | 0.01 | 0.01 | 58 | 1010.7 |
| 20260904185138 | 87 | 213 | 2.0 | 4.0 | 0.00 | 0.01 | 0.01 | 60 | 1010.8 |
| 20260904184137 | 86 | 263 | 0.0 | 3.0 | 0.00 | 0.01 | 0.01 | 64 | 1010.8 |
| 20260904183137 | 85 | 283 | 0.0 | 3.0 | 0.00 | 0.01 | 0.01 | 64 | 1010.9 |
| 20260904182137 | 86 | 316 | 0.0 | 4.0 | 0.00 | 0.01 | 0.01 | 63 | 1011.0 |
| 20260904181137 | 86 | 271 | 0.0 | 2.0 | 0.00 | 0.01 | 0.01 | 62 | 1011.1 |
| 20260904180138 | 86 | 272 | 0.0 | 2.0 | 0.00 | 0.01 | 0.01 | 63 | 1011.1 |
| 20260904175137 | 87 | 281 | 2.0 | 7.0 | 0.00 | 0.01 | 0.01 | 61 | 1011.1 |
| 20260904174137 | 88 | 278 | 0.0 | 3.0 | 0.00 | 0.01 | 0.01 | 59 | 1011.1 |
| 20260904171137 | 88 | 276 | 0.0 | 7.0 | 0.00 | 0.01 | 0.01 | 60 | 1011.1 |
| 20260904170137 | 87 | 263 | 1.0 | 10.0 | 0.00 | 0.01 | 0.01 | 63 | 1011.2 |
| 20260904165137 | 86 | 277 | 3.0 | 7.0 | 0.00 | 0.01 | 0.01 | 63 | 1011.1 |
| 20260904163137 | 87 | 258 | 3.0 | 9.0 | 0.00 | 0.01 | 0.01 | 59 | 1011.2 |
| 20260904162137 | 87 | 273 | 1.0 | 6.0 | 0.00 | 0.01 | 0.01 | 60 | 1011.3 |
| 20260904160137 | 87 | 297 | 0.0 | 6.0 | 0.00 | 0.01 | 0.01 | 62 | 1011.4 |
| 20260904155137 | 86 | 333 | 2.0 | 5.0 | 0.00 | 0.01 | 0.01 | 63 | 1011.5 |
| 20260904154137 | 86 | 249 | 0.0 | 3.0 | 0.00 | 0.01 | 0.01 | 64 | 1011.5 |
| 20260904153137 | 85 | 310 | 0.0 | 10.0 | 0.00 | 0.01 | 0.01 | 65 | 1011.5 |
| 20260904152137 | 86 | 275 | 1.0 | 6.0 | 0.00 | 0.01 | 0.01 | 64 | 1011.7 |
| 20260904151137 | 86 | 266 | 0.0 | 10.0 | 0.00 | 0.01 | 0.01 | 63 | 1011.6 |
| 20260904150137 | 86 | 267 | 0.0 | 7.0 | 0.00 | 0.01 | 0.01 | 62 | 1011.6 |
| 20260904145137 | 85 | 264 | 0.0 | 3.0 | 0.00 | 0.01 | 0.01 | 64 | 1011.7 |
| 20260904143137 | 84 | 311 | 0.0 | 6.0 | 0.00 | 0.01 | 0.01 | 68 | 1011.7 |
| 20260904142138 | 84 | 284 | 1.0 | 2.0 | 0.00 | 0.01 | 0.01 | 67 | 1011.5 |
| 20260904141137 | 84 | 259 | 0.0 | 4.0 | 0.00 | 0.01 | 0.01 | 68 | 1011.5 |
| 20260904135137 | 81 | 257 | 0.0 | 7.0 | 0.00 | 0.01 | 0.01 | 73 | 1011.6 |
| 20260904133137 | 81 | 302 | 2.0 | 8.0 | 0.00 | 0.01 | 0.01 | 73 | 1011.7 |
| 20260904132137 | 81 | 285 | 1.0 | 3.0 | 0.00 | 0.01 | 0.01 | 74 | 1011.6 |
| 20260904130137 | 79 | 254 | 0.0 | 6.0 | 0.00 | 0.01 | 0.01 | 80 | 1011.6 |
| 20260904125137 | 77 | 238 | 0.0 | 9.0 | 0.00 | 0.01 | 0.01 | 82 | 1011.6 |
| 20260904124137 | 77 | 265 | 0.0 | 2.0 | 0.00 | 0.01 | 0.01 | 84 | 1011.5 |
| 20260904122137 | 75 | 286 | 0.0 | 6.0 | 0.00 | 0.01 | 0.01 | 90 | 1011.7 |
| 20260904121137 | 74 | 280 | 0.0 | 2.0 | 0.00 | 0.01 | 0.01 | 91 | 1011.6 |
| 20260904120137 | 74 | 285 | 0.0 | 3.0 | 0.00 | 0.01 | 0.01 | 93 | 1011.4 |
| 20260904115137 | 73 | 272 | 0.0 | 2.0 | 0.00 | 0.01 | 0.01 | 93 | 1011.3 |
| 20260904114138 | 73 | 257 | 0.0 | 1.0 | 0.00 | 0.01 | 0.01 | 94 | 1011.2 |
| 20260904113240 | 72 | 270 | 0.0 | 2.0 | 0.00 | 0.01 | 0.01 | 93 | 1011.2 |
| 20260904015128 | 79 | 224 | 0.0 | 0.0 | 0.00 | 0.55 | 0.55 | 80 | 1012.1 |
| 20260904014128 | 79 | 224 | 0.0 | 0.0 | 0.00 | 0.55 | 0.55 | 80 | 1011.9 |
| 20260904011128 | 80 | 224 | 0.0 | 0.0 | 0.00 | 0.55 | 0.55 | 79 | 1012.3 |
| 20260904010128 | 80 | 224 | 0.0 | 1.0 | 0.00 | 0.55 | 0.55 | 78 | 1012.2 |
| 20260904005129 | 80 | 226 | 0.0 | 0.0 | 0.00 | 0.55 | 0.55 | 77 | 1012.0 |
| 20260904004128 | 81 | 226 | 0.0 | 0.0 | 0.00 | 0.55 | 0.55 | 77 | 1011.9 |
| 20260904003129 | 81 | 226 | 0.0 | 0.0 | 0.00 | 0.55 | 0.55 | 76 | 1011.9 |
| 20260904002128 | 81 | 226 | 0.0 | 1.0 | 0.00 | 0.55 | 0.55 | 76 | 1011.6 |
| 20260904001129 | 82 | 226 | 0.0 | 0.0 | 0.00 | 0.55 | 0.55 | 75 | 1011.5 |
| 20260903235129 | 83 | 229 | 0.0 | 0.0 | 0.00 | 0.55 | 0.55 | 73 | 1011.3 |
| 20260903234128 | 83 | 229 | 0.0 | 0.0 | 0.00 | 0.55 | 0.55 | 72 | 1011.5 |
| 20260903233128 | 83 | 229 | 0.0 | 0.0 | 0.00 | 0.55 | 0.55 | 71 | 1011.6 |
| 20260903232128 | 84 | 229 | 0.0 | 1.0 | 0.00 | 0.55 | 0.55 | 71 | 1011.6 |
| 20260903231128 | 84 | 229 | 0.0 | 1.0 | 0.00 | 0.55 | 0.55 | 70 | 1011.5 |
| 20260903225128 | 85 | 274 | 0.0 | 2.0 | 0.00 | 0.55 | 0.55 | 68 | 1011.3 |
| 20260903224128 | 86 | 273 | 0.0 | 2.0 | 0.00 | 0.55 | 0.55 | 67 | 1011.4 |
| 20260903223127 | 86 | 273 | 0.0 | 4.0 | 0.00 | 0.55 | 0.55 | 66 | 1011.1 |
| 20260903222127 | 86 | 261 | 0.0 | 3.0 | 0.00 | 0.55 | 0.55 | 66 | 1011.2 |
| 20260903221129 | 86 | 270 | 0.0 | 2.0 | 0.00 | 0.55 | 0.55 | 66 | 1011.3 |
| 20260903220128 | 86 | 289 | 0.0 | 1.0 | 0.00 | 0.55 | 0.55 | 65 | 1011.1 |
| 20260903215128 | 86 | 288 | 0.0 | 1.0 | 0.00 | 0.55 | 0.55 | 65 | 1010.9 |
| 20260903214127 | 86 | 288 | 0.0 | 6.0 | 0.00 | 0.55 | 0.55 | 63 | 1010.9 |
| 20260903213129 | 86 | 275 | 0.0 | 4.0 | 0.00 | 0.55 | 0.55 | 64 | 1010.7 |
| 20260903211128 | 87 | 235 | 0.0 | 2.0 | 0.00 | 0.55 | 0.55 | 62 | 1010.9 |
| 20260903210127 | 87 | 273 | 0.0 | 7.0 | 0.00 | 0.55 | 0.55 | 61 | 1010.9 |
| 20260903205127 | 87 | 221 | 0.0 | 8.0 | 0.00 | 0.55 | 0.55 | 63 | 1011.0 |
| 20260903204129 | 88 | 214 | 4.0 | 6.0 | 0.00 | 0.55 | 0.55 | 63 | 1011.1 |
| 20260903203127 | 88 | 200 | 3.0 | 10.0 | 0.00 | 0.55 | 0.55 | 62 | 1011.2 |
| 20260903202127 | 88 | 171 | 0.0 | 3.0 | 0.00 | 0.55 | 0.55 | 61 | 1011.2 |
| 20260903200127 | 89 | 286 | 1.0 | 9.0 | 0.00 | 0.55 | 0.55 | 60 | 1011.4 |
| 20260903195127 | 90 | 280 | 0.0 | 5.0 | 0.00 | 0.55 | 0.55 | 59 | 1011.4 |